When you browse on this site, cookies collect data to enhance your experience and personalize the content and advertising you see.
Visit our Privacy Policy to learn more. By continuing to use the site, you agree to this use of cookies and data.
  • In Sweden
  • List of Countries
  • For 7 days
  • Water Temperature
  • Satellite Maps
  • Weather Map
  • Weather Widgets
  • user-avatar
    Login

    Hourly Weather Klagenfurt

    Today, 26 June, Wednesday

    Time Temperature Precipitation Wind Pressure Humidity
    00:00 +19°C° 0 mm 1 mps 697 mmHg 90%
    01:00 +16°C° 0 mm 0 mps 697 mmHg 92%
    02:00 +16°C° 0 mm 0 mps 697 mmHg 93%
    03:00 +16°C° 0 mm 0 mps 696 mmHg 93%
    04:00 +15°C° 0 mm 0 mps 696 mmHg 94%
    05:00 +17°C° 0 mm 0 mps 696 mmHg 88%
    06:00 +19°C° 0 mm 0 mps 697 mmHg 83%
    07:00 +21°C° 0 mm 0 mps 698 mmHg 78%
    08:00 +25°C° 0 mm 1 mps 698 mmHg 69%
    09:00 +27°C° 0 mm 1 mps 698 mmHg 61%
    10:00 +29°C° 0 mm 1 mps 698 mmHg 53%
    11:00 +30°C° 0 mm 1 mps 699 mmHg 48%
    12:00 +31°C° 0 mm 1 mps 699 mmHg 44%
    13:00 +32°C° 0 mm 1 mps 699 mmHg 40%
    14:00 +32°C° 0 mm 1 mps 699 mmHg 41%
    15:00 +31°C° 0 mm 1 mps 698 mmHg 42%
    16:00 +31°C° 0 mm 1 mps 698 mmHg 43%
    17:00 +29°C° 0 mm 1 mps 697 mmHg 54%
    18:00 +27°C° 0 mm 1 mps 697 mmHg 64%
    19:00 +25°C° 0 mm 1 mps 697 mmHg 75%
    20:00 +24°C° 0 mm 1 mps 697 mmHg 76%
    21:00 +23°C° 0 mm 1 mps 696 mmHg 78%
    22:00 +21°C° 0 mm 1 mps 696 mmHg 80%
    23:00 +21°C° 0 mm 1 mps 696 mmHg 81%

    Tomorrow, 27 June, Thursday

    Time Temperature Precipitation Wind Pressure Humidity
    00:00 +21°C° 0 mm 1 mps 696 mmHg 83%
    01:00 +20°C° 0 mm 1 mps 696 mmHg 84%
    02:00 +20°C° 0 mm 1 mps 696 mmHg 85%
    03:00 +20°C° 0 mm 1 mps 695 mmHg 86%
    04:00 +19°C° 0 mm 1 mps 695 mmHg 87%
    05:00 +21°C° 0 mm 1 mps 695 mmHg 81%
    06:00 +23°C° 0 mm 1 mps 696 mmHg 75%
    07:00 +25°C° 0 mm 1 mps 696 mmHg 69%
    08:00 +27°C° 0 mm 1 mps 696 mmHg 60%
    09:00 +28°C° 0 mm 0 mps 696 mmHg 52%
    10:00 +30°C° 0 mm 0 mps 697 mmHg 44%
    11:00 +33°C° 0 mm 1 mps 696 mmHg 40%
    12:00 +34°C° 0 mm 1 mps 696 mmHg 36%
    13:00 +35°C° 0 mm 1 mps 696 mmHg 31%
    14:00 +35°C° 0 mm 1 mps 696 mmHg 32%
    15:00 +35°C° 0 mm 1 mps 695 mmHg 33%
    16:00 +34°C° 0 mm 1 mps 695 mmHg 34%
    17:00 +32°C° 0 mm 1 mps 694 mmHg 46%
    18:00 +30°C° 0 mm 1 mps 694 mmHg 57%
    19:00 +27°C° 0 mm 1 mps 693 mmHg 69%
    20:00 +25°C° 0.5 mm 1 mps 693 mmHg 74%
    21:00 +23°C° 0.5 mm 1 mps 694 mmHg 79%
    22:00 +19°C° 0.5 mm 0 mps 694 mmHg 84%
    23:00 +19°C° 0.2 mm 0 mps 694 mmHg 88%

    Day after tomorrow, 28 June, Friday

    Time Temperature Precipitation Wind Pressure Humidity
    00:00 +18°C° 0.2 mm 0 mps 694 mmHg 92%
    01:00 +20°C° 0.2 mm 1 mps 694 mmHg 95%
    02:00 +19°C° 0 mm 1 mps 694 mmHg 96%
    03:00 +19°C° 0 mm 1 mps 694 mmHg 97%
    04:00 +19°C° 0 mm 1 mps 694 mmHg 97%
    05:00 +19°C° 0 mm 1 mps 694 mmHg 95%
    06:00 +19°C° 0 mm 1 mps 694 mmHg 92%
    07:00 +19°C° 0 mm 1 mps 694 mmHg 89%
    08:00 +21°C° 0 mm 1 mps 694 mmHg 82%
    09:00 +22°C° 0 mm 1 mps 694 mmHg 75%
    10:00 +23°C° 0 mm 1 mps 694 mmHg 68%
    11:00 +25°C° 0 mm 1 mps 694 mmHg 62%
    12:00 +26°C° 0 mm 2 mps 694 mmHg 57%
    13:00 +28°C° 0 mm 2 mps 694 mmHg 51%
    14:00 +27°C° 0 mm 2 mps 694 mmHg 54%
    15:00 +26°C° 0 mm 2 mps 694 mmHg 57%
    16:00 +26°C° 0 mm 2 mps 694 mmHg 60%
    17:00 +24°C° 0 mm 2 mps 694 mmHg 67%
    18:00 +23°C° 0 mm 2 mps 694 mmHg 74%
    19:00 +22°C° 0 mm 1 mps 694 mmHg 81%
    20:00 +21°C° 0 mm 1 mps 694 mmHg 82%
    21:00 +20°C° 0 mm 1 mps 694 mmHg 84%
    22:00 +19°C° 0 mm 1 mps 694 mmHg 85%
    23:00 +18°C° 0 mm 1 mps 694 mmHg 86%

    29 June, Saturday

    Time Temperature Precipitation Wind Pressure Humidity
    00:00 +15°C° 0 mm 0 mps 694 mmHg 87%
    01:00 +15°C° 0 mm 0 mps 694 mmHg 88%
    02:00 +14°C° 0 mm 0 mps 694 mmHg 88%
    03:00 +14°C° 0 mm 0 mps 694 mmHg 88%
    04:00 +13°C° 0 mm 0 mps 693 mmHg 87%
    05:00 +14°C° 0 mm 0 mps 694 mmHg 82%
    06:00 +16°C° 0 mm 0 mps 694 mmHg 77%
    07:00 +19°C° 0 mm 1 mps 694 mmHg 72%
    08:00 +21°C° 0 mm 1 mps 694 mmHg 66%
    09:00 +22°C° 0 mm 1 mps 694 mmHg 60%
    10:00 +24°C° 0 mm 1 mps 694 mmHg 54%
    11:00 +25°C° 0 mm 1 mps 694 mmHg 50%
    12:00 +26°C° 0 mm 1 mps 694 mmHg 46%
    13:00 +27°C° 0 mm 1 mps 694 mmHg 42%
    14:00 +27°C° 0 mm 1 mps 694 mmHg 43%
    15:00 +27°C° 0 mm 2 mps 694 mmHg 44%
    16:00 +27°C° 0 mm 2 mps 694 mmHg 45%
    17:00 +25°C° 0 mm 1 mps 694 mmHg 54%
    18:00 +23°C° 0 mm 1 mps 693 mmHg 64%
    19:00 +21°C° 0 mm 1 mps 693 mmHg 73%
    20:00 +20°C° 0 mm 1 mps 693 mmHg 76%
    21:00 +18°C° 0 mm 1 mps 693 mmHg 79%
    22:00 +16°C° 0 mm 1 mps 693 mmHg 82%
    23:00 +15°C° 0 mm 1 mps 693 mmHg 82%

    30 June, Sunday

    Time Temperature Precipitation Wind Pressure Humidity
    00:00 +15°C° 0 mm 1 mps 693 mmHg 83%
    01:00 +14°C° 0 mm 1 mps 693 mmHg 84%
    02:00 +13°C° 0 mm 0 mps 693 mmHg 85%
    03:00 +13°C° 0 mm 0 mps 693 mmHg 86%
    04:00 +13°C° 0 mm 0 mps 692 mmHg 88%
    05:00 +15°C° 0 mm 0 mps 693 mmHg 82%
    06:00 +17°C° 0 mm 0 mps 693 mmHg 76%
    07:00 +19°C° 0 mm 0 mps 694 mmHg 70%
    08:00 +21°C° 0 mm 0 mps 694 mmHg 63%
    09:00 +25°C° 0 mm 1 mps 694 mmHg 57%
    10:00 +27°C° 0 mm 1 mps 695 mmHg 51%
    11:00 +28°C° 0 mm 1 mps 695 mmHg 48%
    12:00 +29°C° 0 mm 1 mps 695 mmHg 45%
    13:00 +30°C° 0 mm 1 mps 695 mmHg 42%
    14:00 +29°C° 0 mm 1 mps 694 mmHg 43%
    15:00 +29°C° 0 mm 1 mps 694 mmHg 44%
    16:00 +29°C° 0 mm 1 mps 694 mmHg 44%
    17:00 +27°C° 0 mm 1 mps 694 mmHg 54%
    18:00 +25°C° 0 mm 1 mps 694 mmHg 64%
    19:00 +23°C° 0 mm 1 mps 693 mmHg 73%
    20:00 +22°C° 0 mm 1 mps 694 mmHg 75%
    21:00 +21°C° 0 mm 1 mps 694 mmHg 76%
    22:00 +20°C° 0 mm 1 mps 694 mmHg 78%
    23:00 +19°C° 0 mm 1 mps 694 mmHg 79%

    1 July, Monday

    Time Temperature Precipitation Wind Pressure Humidity
    00:00 +17°C° 0 mm 0 mps 694 mmHg 80%
    01:00 +17°C° 0 mm 0 mps 694 mmHg 81%
    02:00 +17°C° 0 mm 0 mps 693 mmHg 83%
    03:00 +16°C° 0 mm 0 mps 693 mmHg 85%
    04:00 +16°C° 0 mm 0 mps 693 mmHg 87%
    05:00 +18°C° 0 mm 0 mps 693 mmHg 83%
    06:00 +20°C° 0 mm 0 mps 694 mmHg 78%
    07:00 +22°C° 0 mm 0 mps 694 mmHg 74%
    08:00 +24°C° 0 mm 0 mps 694 mmHg 67%
    09:00 +28°C° 0 mm 1 mps 695 mmHg 59%
    10:00 +30°C° 0 mm 1 mps 695 mmHg 52%
    11:00 +31°C° 0 mm 1 mps 695 mmHg 48%
    12:00 +32°C° 0 mm 1 mps 695 mmHg 44%
    13:00 +33°C° 0 mm 1 mps 695 mmHg 39%
    14:00 +33°C° 0 mm 1 mps 694 mmHg 40%
    15:00 +32°C° 0 mm 2 mps 694 mmHg 41%
    16:00 +32°C° 0 mm 2 mps 694 mmHg 42%
    17:00 +30°C° 0.1 mm 2 mps 693 mmHg 53%
    18:00 +27°C° 0.1 mm 2 mps 693 mmHg 65%
    19:00 +25°C° 0.1 mm 1 mps 693 mmHg 76%
    20:00 +24°C° 0.2 mm 1 mps 693 mmHg 80%
    21:00 +22°C° 0.2 mm 1 mps 693 mmHg 85%
    22:00 +20°C° 0.2 mm 1 mps 693 mmHg 89%
    23:00 +20°C° 0.1 mm 1 mps 693 mmHg 87%
    Show more